TimeEST,TemperatureF,Dew PointF,Humidity,Sea Level PressureIn,VisibilityMPH,Wind Direction,Wind SpeedMPH,Gust SpeedMPH,PrecipitationIn,Events,Conditions,WindDirDegrees,DateUTC
12:55 AM,27.7,23.4,84,30.40,10.0,Calm,Calm,-,N/A,,Clear,0,2013-01-08 05:55:00
1:55 AM,26.2,22.3,85,30.39,10.0,Calm,Calm,-,N/A,,Clear,0,2013-01-08 06:55:00
2:55 AM,25.5,22.5,88,30.39,10.0,Calm,Calm,-,N/A,,Clear,0,2013-01-08 07:55:00
3:55 AM,23.9,21.2,89,30.37,10.0,Calm,Calm,-,N/A,,Clear,0,2013-01-08 08:55:00
4:55 AM,25.3,21.9,87,30.37,10.0,SSW,3.5,-,N/A,,Clear,200,2013-01-08 09:55:00
5:55 AM,25.5,22.1,87,30.39,10.0,SW,3.5,-,N/A,,Clear,220,2013-01-08 10:55:00
6:55 AM,28.0,25.2,89,30.41,10.0,SW,6.9,-,N/A,,Clear,220,2013-01-08 11:55:00
7:55 AM,30.4,28.0,91,30.42,7.0,SW,9.2,-,N/A,,Clear,220,2013-01-08 12:55:00
8:55 AM,35.8,30.4,81,30.43,10.0,SW,8.1,-,N/A,,Clear,230,2013-01-08 13:55:00
9:55 AM,40.3,30.7,69,30.43,10.0,WSW,12.7,-,N/A,,Clear,240,2013-01-08 14:55:00
10:55 AM,45.3,30.2,56,30.40,10.0,SW,15.0,-,N/A,,Clear,230,2013-01-08 15:55:00
11:55 AM,47.5,30.4,52,30.37,10.0,SW,16.1,-,N/A,,Clear,230,2013-01-08 16:55:00
12:55 PM,48.6,31.3,51,30.35,10.0,WSW,16.1,21.9,N/A,,Clear,250,2013-01-08 17:55:00
1:55 PM,49.1,31.6,51,30.35,10.0,WSW,12.7,-,N/A,,Clear,250,2013-01-08 18:55:00
2:55 PM,48.7,31.6,52,30.36,10.0,West,12.7,-,N/A,,Clear,270,2013-01-08 19:55:00
3:55 PM,46.8,31.8,56,30.37,10.0,WNW,6.9,-,N/A,,Clear,290,2013-01-08 20:55:00
4:55 PM,42.3,31.5,66,30.37,10.0,West,3.5,-,N/A,,Partly Cloudy,270,2013-01-08 21:55:00
5:55 PM,37.2,30.6,77,30.38,10.0,Calm,Calm,-,N/A,,Partly Cloudy,0,2013-01-08 22:55:00
6:55 PM,37.8,30.7,76,30.38,10.0,WSW,4.6,-,N/A,,Overcast,240,2013-01-08 23:55:00
7:55 PM,34.3,29.5,82,30.39,10.0,Calm,Calm,-,N/A,,Scattered Clouds,0,2013-01-09 00:55:00
8:55 PM,32.0,28.4,87,30.37,10.0,Calm,Calm,-,N/A,,Clear,0,2013-01-09 01:55:00
9:55 PM,31.1,27.5,87,30.38,10.0,Calm,Calm,-,N/A,,Scattered Clouds,0,2013-01-09 02:55:00
10:55 PM,32.7,29.7,88,30.40,10.0,Calm,Calm,-,N/A,,Overcast,0,2013-01-09 03:55:00
11:55 PM,33.6,30.6,89,30.38,10.0,Calm,Calm,-,N/A,,Overcast,0,2013-01-09 04:55:00